Regional Weather Roundup
Issued by NWS

Home | Current Version | Previous Version | Graphics & Text | Print | Product List | Glossary On
Versions: 1 2 3 4 5 6 7 8 9 10 11 12 13 14 15 16 17 18 19 20 21 22 23 24 25 26 27 28 29 30 31 32 33 34 35 36 37 38 39 40 41 42 43 44 45 46 47 48 49 50
000
ASUS43 KFSD 161210
RWRSD

WEATHER ROUNDUP FOR SOUTH DAKOTA
NATIONAL WEATHER SERVICE SIOUX FALLS SD
700 AM CDT WED APR 16 2014

NOTE: "FAIR" INDICATES FEW OR NO CLOUDS BELOW 12,000 FEET WITH NO
SIGNIFICANT WEATHER AND/OR OBSTRUCTIONS TO VISIBILITY.


SDZ001>005-009-010-012>017-161300-
NORTHWEST AND NORTH CENTRAL SOUTH DAKOTA

CITY           SKY/WX    TMP DP  RH WIND       PRES   REMARKS
BUFFALO          N/A     26  19  74 NE18      29.72R WCI  13
MOBRIDGE       CLOUDY    30  21  69 NE9       29.75R WCI  22
$$

SDZ012>016-024>037-041>051-057-063-072>074-161300-
SOUTHWEST AND SOUTH CENTRAL SOUTH DAKOTA

CITY           SKY/WX    TMP DP  RH WIND       PRES   REMARKS
RAPID CTY ARPT CLOUDY    40  35  83 NW28G35   29.70R
PIERRE         FLURRIES  32  27  81 NE21G29   29.66R WCI  20
CUSTER         FLURRIES  34  29  82 N7        29.70R WCI  28
ELLSWORTH AFB  CLOUDY    40  36  87 NW23G31   29.70R
PHILIP         LGT SNOW  32  30  92 N9        29.72R FOG     WCI  24
PINE RIDGE     LGT RAIN  39  38  96 NW13      29.71R
SPEARFISH      MOCLDY    37  34  87 W14G22    29.76R
WINNER         FAIR      37  31  78 NW21      29.58R
$$

SDZ004>011-016>023-039-040-161300-
NORTHEAST SOUTH DAKOTA

CITY           SKY/WX    TMP DP  RH WIND       PRES   REMARKS
ABERDEEN       FLURRIES  30  21  69 E21G26    29.78R WCI  17
WATERTOWN      CLOUDY    30  20  66 E16G30    29.73R WCI  19
SISSETON         N/A     29  23  78 E16G24    29.85S WCI  17
$$

SDZ017-020-022-023-036>040-048>070-161300-
SOUTHEAST SOUTH DAKOTA

CITY           SKY/WX    TMP DP  RH WIND       PRES   REMARKS
SIOUX FALLS    CLOUDY    46  25  43 S14G23    29.61S
HURON          LGT RAIN  34  26  72 NE18G29   29.63R WCI  23
MITCHELL       CLOUDY    43  32  65 E13       29.52F
YANKTON        CLOUDY    48  25  40 S20       29.57F
$$

ABBREVIATIONS USED IN REMARKS
   TC - TEMPERATURE IN CELSIUS
  WCI - WIND CHILL INDEX
   HX - HEAT INDEX
  VSB - VISIBILITY




USA.gov is the U.S. government's official web portal to all federal, state and local government web resources and services.